�������l�o���
Date,Time,MP-1(��Sv/h),MP-2(��Sv/h),MP-3(��Sv/h),MP-4(��Sv/h),MP-5(��Sv/h),MP-6(��Sv/h),MP-7(��Sv/h),����,����(m/s),���J
2019/09/13,00:00,0.186,0.164,0.279,0.262,0.264,0.141,0.087,�k�k��,4.8,��
2019/09/13,00:10,0.185,0.164,0.281,0.264,0.265,0.141,0.088,�k��,5.3,��
2019/09/13,00:20,0.185,0.162,0.277,0.262,0.264,0.141,0.087,�k��,5.2,��
2019/09/13,00:30,0.187,0.166,0.280,0.264,0.265,0.141,0.088,�k�k��,5.1,��
2019/09/13,00:40,0.184,0.164,0.277,0.262,0.263,0.140,0.087,�k�k��,4.5,��
2019/09/13,00:50,0.186,0.164,0.279,0.263,0.264,0.141,0.087,�k�k��,5.2,��
2019/09/13,01:00,0.185,0.164,0.278,0.262,0.263,0.141,0.087,�k�k��,5.2,��
2019/09/13,01:10,0.185,0.163,0.281,0.263,0.264,0.140,0.087,�k�k��,4.9,��
2019/09/13,01:20,0.184,0.165,0.278,0.261,0.264,0.141,0.087,�k�k��,4.6,��
2019/09/13,01:30,0.186,0.163,0.279,0.264,0.264,0.141,0.088,�k��,4.2,��
2019/09/13,01:40,0.184,0.164,0.279,0.262,0.264,0.141,0.087,�k�k��,4.9,��
2019/09/13,01:50,0.185,0.164,0.279,0.263,0.264,0.140,0.087,�k�k��,4.3,��
2019/09/13,02:00,0.184,0.164,0.280,0.263,0.264,0.141,0.087,�k�k��,4.9,��
2019/09/13,02:10,0.185,0.163,0.279,0.261,0.264,0.139,0.087,�k�k��,4.5,��
2019/09/13,02:20,0.184,0.164,0.279,0.263,0.263,0.141,0.088,�k�k��,4.8,��
2019/09/13,02:30,0.185,0.165,0.279,0.262,0.265,0.141,0.087,�k�k��,5.1,��
2019/09/13,02:40,0.184,0.163,0.280,0.263,0.263,0.141,0.087,�k�k��,5.4,��
2019/09/13,02:50,0.186,0.165,0.278,0.262,0.263,0.141,0.087,�k�k��,5.3,��
2019/09/13,03:00,0.184,0.164,0.279,0.263,0.263,0.140,0.088,�k�k��,4.9,��
2019/09/13,03:10,0.186,0.164,0.277,0.262,0.264,0.140,0.087,�k�k��,4.8,��
2019/09/13,03:20,0.184,0.163,0.280,0.264,0.264,0.141,0.087,�k�k��,4.5,��
2019/09/13,03:30,0.185,0.164,0.279,0.262,0.265,0.140,0.087,�k�k��,4.6,��
2019/09/13,03:40,0.184,0.164,0.279,0.264,0.263,0.141,0.087,�k�k��,4.9,��
2019/09/13,03:50,0.186,0.163,0.277,0.262,0.263,0.141,0.087,�k�k��,4.8,��
2019/09/13,04:00,0.185,0.163,0.279,0.265,0.262,0.142,0.086,�k�k��,4.5,��
2019/09/13,04:10,0.186,0.163,0.278,0.261,0.266,0.141,0.088,�k�k��,4.3,��
2019/09/13,04:20,0.184,0.164,0.280,0.264,0.264,0.141,0.086,�k�k��,4.2,��
2019/09/13,04:30,0.185,0.163,0.279,0.262,0.264,0.141,0.088,�k�k��,4.8,��
2019/09/13,04:40,0.184,0.164,0.280,0.264,0.262,0.141,0.087,�k�k��,4.8,��
2019/09/13,04:50,0.185,0.163,0.279,0.261,0.265,0.141,0.088,�k��,4.8,��
2019/09/13,05:00,0.184,0.163,0.279,0.262,0.264,0.141,0.087,�k�k��,4.3,��
2019/09/13,05:10,0.185,0.163,0.279,0.262,0.266,0.141,0.087,�k�k��,5.1,��
2019/09/13,05:20,0.183,0.165,0.279,0.263,0.263,0.141,0.087,�k�k��,5.6,��
2019/09/13,05:30,0.186,0.164,0.278,0.262,0.266,0.141,0.088,�k�k��,4.8,��
2019/09/13,05:40,0.185,0.164,0.280,0.263,0.263,0.141,0.087,�k�k��,5.3,��
2019/09/13,05:50,0.185,0.164,0.278,0.261,0.266,0.141,0.087,�k�k��,6.0,��
2019/09/13,06:00,0.184,0.164,0.279,0.263,0.263,0.142,0.088,�k�k��,6.0,��
2019/09/13,06:10,0.185,0.163,0.279,0.261,0.265,0.141,0.089,�k�k��,6.5,��
2019/09/13,06:20,0.186,0.164,0.281,0.262,0.262,0.141,0.087,�k�k��,5.9,��
2019/09/13,06:30,0.184,0.164,0.278,0.262,0.263,0.141,0.088,�k�k��,6.2,��
2019/09/13,06:40,0.187,0.165,0.281,0.263,0.265,0.142,0.087,�k��,6.3,��
2019/09/13,06:50,0.184,0.163,0.277,0.262,0.264,0.141,0.088,�k�k��,5.7,��
2019/09/13,07:00,0.186,0.165,0.280,0.261,0.265,0.141,0.087,�k��,5.9,��
2019/09/13,07:10,0.185,0.163,0.278,0.264,0.262,0.141,0.087,�k�k��,5.5,��
2019/09/13,07:20,0.185,0.164,0.279,0.261,0.266,0.140,0.088,�k�k��,5.1,��
2019/09/13,07:30,0.185,0.164,0.278,0.262,0.264,0.141,0.088,�k��,4.0,��
2019/09/13,07:40,0.184,0.163,0.277,0.262,0.261,0.140,0.087,�k�k��,4.4,��
2019/09/13,07:50,0.187,0.165,0.279,0.262,0.266,0.141,0.088,�k�k��,4.0,��
2019/09/13,08:00,0.185,0.161,0.276,0.263,0.263,0.141,0.087,�k�k��,3.4,��
2019/09/13,08:10,0.185,0.163,0.280,0.261,0.261,0.139,0.088,�k��,3.4,��
2019/09/13,08:20,0.186,0.165,0.278,0.261,0.264,0.141,0.087,�k�k��,3.5,��
2019/09/13,08:30,0.184,0.163,0.276,0.264,0.264,0.141,0.088,�k�k��,3.2,��
2019/09/13,08:40,0.185,0.164,0.280,0.262,0.262,0.140,0.087,�k�k��,3.2,��
2019/09/13,08:50,0.185,0.165,0.278,0.260,0.262,0.141,0.087,�k�k��,3.2,��
2019/09/13,09:00,0.185,0.163,0.277,0.261,0.264,0.142,0.087,�k�k��,2.7,��
2019/09/13,09:10,0.183,0.163,0.280,0.265,0.266,0.142,0.087,�k,2.7,��
2019/09/13,09:20,0.186,0.164,0.278,0.262,0.263,0.140,0.087,�k�k��,2.1,��
2019/09/13,09:30,0.186,0.165,0.277,0.261,0.261,0.141,0.087,�k�k��,1.7,��
2019/09/13,09:40,0.184,0.163,0.281,0.261,0.261,0.143,0.086,�k��,1.9,��
2019/09/13,09:50,0.182,0.163,0.279,0.261,0.261,0.141,0.087,�k��,2.2,��
2019/09/13,10:00,0.182,0.163,0.277,0.261,0.261,0.141,0.086,�k��,1.4,��
2019/09/13,10:10,0.183,0.162,0.280,0.261,0.261,0.140,0.087,�k��,2.0,��
2019/09/13,10:20,0.187,0.162,0.279,0.261,0.262,0.140,0.087,�k��,2.1,��
2019/09/13,10:30,0.185,0.162,0.278,0.261,0.262,0.141,0.088,�k��,2.7,��
2019/09/13,10:40,0.184,0.162,0.276,0.261,0.261,0.141,0.087,���k��,2.5,��
2019/09/13,10:50,0.184,0.166,0.279,0.262,0.262,0.141,0.087,���k��,2.6,��
2019/09/13,11:00,0.183,0.164,0.280,0.261,0.263,0.141,0.087,���k��,3.0,��
2019/09/13,11:10,0.186,0.164,0.278,0.261,0.264,0.141,0.087,�k��,3.1,��
2019/09/13,11:20,0.187,0.163,0.276,0.266,0.268,0.142,0.086,�k��,2.8,��
2019/09/13,11:30,0.185,0.164,0.279,0.265,0.265,0.143,0.087,���k��,2.4,��
2019/09/13,11:40,0.184,0.165,0.282,0.262,0.263,0.142,0.088,�k��,2.7,��
2019/09/13,11:50,0.187,0.164,0.280,0.261,0.263,0.141,0.088,���k��,2.7,��
2019/09/13,12:00,0.185,0.164,0.278,0.266,0.266,0.141,0.087,���k��,1.7,��
2019/09/13,12:10,0.183,0.164,0.280,0.265,0.265,0.142,0.088,���k��,2.1,��
2019/09/13,12:20,0.186,0.164,0.279,0.262,0.263,0.141,0.087,���k��,2.0,��
2019/09/13,12:30,0.186,0.163,0.278,0.263,0.264,0.141,0.087,���k��,1.1,��
2019/09/13,12:40,0.185,0.164,0.281,0.266,0.266,0.142,0.086,��,1.8,��
2019/09/13,12:50,0.187,0.165,0.280,0.263,0.262,0.142,0.087,��,0.7,��
2019/09/13,13:00,0.187,0.164,0.276,0.263,0.261,0.141,0.087,��,0.8,��
2019/09/13,13:10,0.185,0.163,0.280,0.265,0.264,0.140,0.087,�쓌,1.0,��
2019/09/13,13:20,0.184,0.164,0.279,0.264,0.265,0.142,0.086,���쓌,1.5,��
2019/09/13,13:30,0.186,0.165,0.277,0.261,0.263,0.141,0.087,�쓌,1.3,��
2019/09/13,13:40,0.187,0.164,0.275,0.261,0.261,0.142,0.087,�쓌,2.2,��
2019/09/13,13:50,0.185,0.162,0.279,0.264,0.262,0.140,0.087,�쓌,3.0,��
2019/09/13,14:00,0.185,0.164,0.282,0.265,0.262,0.142,0.086,��쓌,2.6,��
2019/09/13,14:10,0.186,0.164,0.279,0.263,0.265,0.141,0.087,�쓌,3.1,��
2019/09/13,14:20,0.186,0.163,0.278,0.263,0.263,0.141,0.087,�쓌,2.0,��
2019/09/13,14:30,0.185,0.164,0.281,0.266,0.261,0.141,0.087,�쓌,3.4,��
2019/09/13,14:40,0.186,0.167,0.279,0.263,0.266,0.142,0.086,��쓌,3.3,��
2019/09/13,14:50,0.188,0.164,0.279,0.263,0.264,0.140,0.088,��쓌,2.3,��
2019/09/13,15:00,0.185,0.163,0.281,0.266,0.262,0.141,0.087,��,1.6,��
2019/09/13,15:10,0.183,0.165,0.278,0.264,0.264,0.142,0.086,��,2.0,��
2019/09/13,15:20,0.188,0.164,0.278,0.264,0.266,0.141,0.087,��쓌,3.0,��
2019/09/13,15:30,0.187,0.163,0.282,0.265,0.264,0.141,0.087,��쓌,2.6,��
2019/09/13,15:40,0.184,0.164,0.279,0.263,0.263,0.142,0.087,�쓌,2.4,��
2019/09/13,15:50,0.186,0.165,0.278,0.261,0.265,0.141,0.087,�쓌,2.8,��
2019/09/13,16:00,0.187,0.164,0.281,0.264,0.266,0.140,0.088,��쓌,2.4,��
2019/09/13,16:10,0.186,0.164,0.280,0.264,0.264,0.142,0.088,�쓌,2.6,��
2019/09/13,16:20,0.185,0.164,0.280,0.262,0.262,0.142,0.087,�쓌,1.6,��
2019/09/13,16:30,0.187,0.163,0.280,0.265,0.265,0.141,0.087,��쓌,1.9,��
2019/09/13,16:40,0.184,0.163,0.279,0.264,0.267,0.142,0.088,�쓌,1.3,��
2019/09/13,16:50,0.185,0.165,0.281,0.262,0.264,0.142,0.086,���쓌,1.2,��
2019/09/13,17:00,0.187,0.163,0.280,0.266,0.266,0.141,0.088,�쓌,2.5,��
2019/09/13,17:10,0.186,0.164,0.279,0.264,0.266,0.142,0.087,�쓌,2.2,��
2019/09/13,17:20,0.185,0.163,0.281,0.263,0.263,0.142,0.087,�쓌,2.2,��
2019/09/13,17:30,0.186,0.164,0.280,0.266,0.266,0.141,0.087,��쓌,2.3,��
2019/09/13,17:40,0.185,0.165,0.280,0.263,0.265,0.141,0.087,��쓌,2.0,��
2019/09/13,17:50,0.186,0.164,0.280,0.264,0.262,0.142,0.087,�쓌,2.0,��
2019/09/13,18:00,0.187,0.165,0.279,0.265,0.265,0.141,0.089,��쓌,1.2,��
2019/09/13,18:10,0.185,0.163,0.282,0.262,0.265,0.142,0.087,��쓌,1.4,��
2019/09/13,18:20,0.186,0.166,0.279,0.264,0.263,0.141,0.087,�쓌,1.5,��
2019/09/13,18:30,0.184,0.164,0.282,0.264,0.267,0.142,0.088,�쓌,1.7,��
2019/09/13,18:40,0.187,0.165,0.279,0.265,0.263,0.142,0.087,��쓌,1.3,��
2019/09/13,18:50,0.185,0.164,0.281,0.264,0.266,0.142,0.087,���쓌,1.8,��
2019/09/13,19:00,0.186,0.165,0.281,0.264,0.264,0.142,0.087,���쓌,0.9,��
2019/09/13,19:10,0.186,0.165,0.282,0.266,0.267,0.142,0.088,��쓌,0.6,��
2019/09/13,19:20,0.185,0.165,0.282,0.264,0.265,0.142,0.087,�쓌,1.3,��
2019/09/13,19:30,0.187,0.164,0.280,0.265,0.263,0.142,0.087,��쓌,1.0,��
2019/09/13,19:40,0.185,0.165,0.281,0.262,0.266,0.142,0.087,�쓌,2.4,��
2019/09/13,19:50,0.187,0.164,0.280,0.265,0.265,0.142,0.088,�쓌,2.5,��
2019/09/13,20:00,0.185,0.165,0.281,0.264,0.266,0.142,0.088,�쓌,2.2,��
2019/09/13,20:10,0.187,0.164,0.281,0.265,0.265,0.142,0.087,��쓌,2.0,��
2019/09/13,20:20,0.185,0.165,0.281,0.264,0.266,0.143,0.088,�쓌,2.7,��
2019/09/13,20:30,0.187,0.163,0.280,0.265,0.264,0.142,0.087,�쓌,2.3,��
2019/09/13,20:40,0.185,0.165,0.282,0.264,0.266,0.142,0.088,�쓌,1.9,��
2019/09/13,20:50,0.186,0.163,0.279,0.266,0.264,0.142,0.088,�쓌,2.5,��
2019/09/13,21:00,0.185,0.165,0.281,0.264,0.266,0.142,0.088,�쓌,2.1,��
2019/09/13,21:10,0.185,0.164,0.280,0.264,0.265,0.142,0.087,��쓌,2.6,��
2019/09/13,21:20,0.186,0.165,0.284,0.264,0.266,0.141,0.087,��,2.4,��
2019/09/13,21:30,0.186,0.164,0.279,0.264,0.264,0.142,0.089,��쓌,2.5,��
2019/09/13,21:40,0.185,0.165,0.282,0.264,0.266,0.143,0.087,��,2.1,��
2019/09/13,21:50,0.185,0.164,0.279,0.264,0.264,0.141,0.087,��,2.1,��
2019/09/13,22:00,0.185,0.165,0.282,0.264,0.266,0.142,0.088,��,2.5,��
2019/09/13,22:10,0.186,0.165,0.280,0.265,0.264,0.141,0.087,��쓌,2.6,��
2019/09/13,22:20,0.186,0.165,0.282,0.264,0.266,0.142,0.087,��쓌,3.0,��
2019/09/13,22:30,0.185,0.163,0.279,0.264,0.264,0.142,0.088,��,3.4,��
2019/09/13,22:40,0.186,0.164,0.282,0.264,0.266,0.142,0.087,��쓌,2.9,��
2019/09/13,22:50,0.187,0.165,0.281,0.265,0.263,0.142,0.088,��,3.2,��
2019/09/13,23:00,0.186,0.165,0.281,0.263,0.266,0.143,0.088,��,3.0,��
2019/09/13,23:10,0.187,0.165,0.280,0.265,0.264,0.142,0.088,��,2.7,��
2019/09/13,23:20,0.186,0.165,0.280,0.262,0.264,0.142,0.087,��,2.3,��
2019/09/13,23:30,0.186,0.165,0.281,0.263,0.265,0.143,0.088,��,2.4,��
2019/09/13,23:40,0.185,0.164,0.280,0.263,0.265,0.142,0.088,��,2.3,��
2019/09/13,23:50,0.187,0.164,0.280,0.265,0.264,0.143,0.087,��,2.4,��
